Voltar ao catálogo

ARIANE 5 R/B

AtivoMEO
NORAD 43568·ROCKET BODY·🇫🇷 France

Lançado Jul 25, 2018 de Guiana Space Centre

Loading…

Próximas Passagens (próximas 24 horas)

TLE

AtualizadoSource: Space-Track

Época: Sep 13, 2026, 01:37 UTC

1 43568U 18060E   26256.06762898 -.00000099  00000-0  00000-0 0  9997
2 43568  56.9490 336.3851 0005041 263.4778  96.5194  1.73227707 51508

Acompanhe ARIANE 5 R/B em tempo real com AllMySat

Download on the App Store